Location: Newark
(44.9333°N, 0.5667°E)
Time: 00:33:20
(UTC+00:00)

Oscar 11 - Pass Details

Date: 07 March 2020
Orbit: 612 x 626 km, 97.6° (Epoch: 28 March)

Event Time Altitude Azimuth Distance (km) Brightness Sun altitude
Rises 05:40:16 0° 31° (NNE) 2,896 11.0 -8.6°
Reaches altitude 10° 05:43:27 10° 57° (ENE) 1,982 10.7 -8.1°
Maximum altitude 05:45:46 14° 90° (E) 1,715 10.9 -7.6°
Drops below altitude 10° 05:48:04 10° 122° (ESE) 1,970 10.7 -7.2°
Sets 05:51:12 0° 148° (SSE) 2,867 11.0 -6.7°
